Weather History for Logan, UT

Change the Weather History Date:

Tuesday, February 19, 2013

  Actual Average Record
Temperature  
Mean Temperature 14 °F -  
Max Temperature 24 °F 40 °F 58 °F (1972)
Min Temperature 3 °F 18 °F -7 °F (1985)
Degree Days  
Heating Degree Days 52    
Moisture  
Dew Point 9 °F    
Average Humidity 86    
Maximum Humidity 95    
Minimum Humidity 71    
Precipitation  
Precipitation 0.00 in - - ()
Sea Level Pressure  
Sea Level Pressure 29.89 in    
Wind  
Wind Speed 1 mph (West)    
Max Wind Speed 5 mph    
Max Gust Speed -    
Visibility 4 miles    
Events Fog    
Averages and records for this station are not official NWS values.
T = Trace of Precipitation, MM = Missing Value Source: NWS Daily Summary

Daily Weather History Graph

Daily Weather History Graph

Search for Another Location

Airport:

Trip Planner

Search our weather history database for the weather conditions in past years. The results will help you decide how hot, cold, wet, or windy it might be!

Date:

Astronomy

Feb. 19, 2013 Rise Set
Actual Time 7:16 AM MST 6:06 PM MST
Civil Twilight 6:48 AM MST 6:34 PM MST
Nautical Twilight 6:16 AM MST 7:06 PM MST
Astronomical Twilight 5:44 AM MST 7:39 PM MST
Moon 12:37 PM MST (2/19) 2:54 AM MST (2/19)
Length of Visible Light 11h 45m
Length of Day
10h 49m
Waxing Gibbous, 68% of the Moon is Illuminated
Feb 19
Waxing Gibbous
Feb 25
Full
Mar 4
Last Quarter
Mar 11
New
Mar 19
First Quarter

Hourly Weather History & Observations

Time (MST) Temp. Windchill Dew Point Humidity Pressure Visibility Wind Dir Wind Speed Gust Speed Precip Events Conditions
12:10 AM 12.2 °F - 10.4 °F 92% 29.93 in 1.5 mi Calm Calm - N/A   Partly Cloudy
12:13 AM 12.2 °F 6.1 °F 10.4 °F 92% 29.93 in 0.8 mi West 3.5 mph - N/A   Mist
12:51 AM 9.0 °F - 6.1 °F 88% 30.08 in 0.5 mi Calm Calm - N/A Fog Light Freezing Fog
1:40 AM 10.4 °F - 8.6 °F 92% 29.89 in 1.8 mi Calm Calm - N/A   Partly Cloudy
1:45 AM 10.4 °F - 6.8 °F 85% 29.89 in 5.0 mi Calm Calm - N/A   Partly Cloudy
1:51 AM 10.0 °F - 7.0 °F 87% 30.04 in 5.0 mi Calm Calm - N/A   Partly Cloudy
2:01 AM 8.6 °F - 6.8 °F 92% 29.89 in 1.8 mi Calm Calm - N/A   Clear
2:51 AM 6.1 °F - 3.0 °F 87% 30.03 in 0.2 mi Calm Calm - N/A Fog Light Freezing Fog
3:51 AM 5.0 °F - 3.9 °F 95% 30.01 in 0.2 mi Calm Calm - N/A Fog Light Freezing Fog
4:51 AM 5.0 °F - 3.0 °F 92% 29.99 in 0.2 mi Calm Calm - N/A Fog Light Freezing Fog
5:51 AM 3.0 °F -4.4 °F -0.0 °F 87% 29.99 in 0.2 mi NE 3.5 mph - N/A Fog Light Freezing Fog
6:51 AM 5.0 °F - 3.0 °F 92% 29.96 in 0.2 mi Calm Calm - N/A Fog Light Freezing Fog
7:51 AM 3.0 °F - 1.0 °F 91% 29.99 in 0.2 mi Calm Calm - N/A Fog Light Freezing Fog
8:51 AM 6.1 °F -0.9 °F 3.9 °F 91% 29.98 in 0.2 mi South 3.5 mph - N/A Fog Light Freezing Fog
9:51 AM 9.0 °F - 7.0 °F 92% 29.94 in 0.2 mi Calm Calm - N/A Fog Light Freezing Fog
10:24 AM 12.2 °F - 10.4 °F 92% 29.78 in 1.0 mi Calm Calm - N/A   Overcast
10:38 AM 10.4 °F 2.2 °F 8.6 °F 92% 29.78 in 2.0 mi WSW 4.6 mph - N/A   Overcast
11:51 AM 16.0 °F - 12.0 °F 84% 29.91 in 7.0 mi Calm Calm - N/A   Overcast
12:51 PM 19.0 °F - 12.9 °F 77% 29.89 in 8.0 mi Calm Calm - N/A   Overcast
1:51 PM 19.9 °F 14.9 °F 14.0 °F 78% 29.85 in 9.0 mi West 3.5 mph - N/A   Mostly Cloudy
2:51 PM 23.0 °F - 16.0 °F 74% 29.83 in 9.0 mi Calm Calm - N/A   Clear
3:51 PM 24.1 °F - 16.0 °F 71% 29.81 in 9.0 mi Calm Calm - N/A   Clear
5:51 PM 21.0 °F 16.2 °F 15.1 °F 78% 29.81 in 8.0 mi SW 3.5 mph - N/A   Clear
6:51 PM 21.0 °F - 14.0 °F 74% 29.79 in 10.0 mi Calm Calm - N/A   Mostly Cloudy
7:51 PM 15.1 °F 9.4 °F 10.9 °F 84% 29.81 in 8.0 mi NNW 3.5 mph - N/A   Mostly Cloudy
8:51 PM 14.0 °F 8.2 °F 10.9 °F 88% 29.80 in 5.0 mi NW 3.5 mph - N/A   Clear
9:51 PM 14.0 °F - 10.9 °F 88% 29.78 in 6.0 mi Calm Calm - N/A   Overcast
10:51 PM 14.0 °F 8.2 °F 10.0 °F 84% 29.77 in 6.0 mi WNW 3.5 mph - N/A   Scattered Clouds
11:51 PM 18.0 °F 11.1 °F 14.0 °F 84% 29.75 in 7.0 mi SSE 4.6 mph - N/A   Overcast